{"data":{"norad_id":42805,"epoch":"2026-09-19T21:50:15.126720Z","epoch_age_seconds":66540,"freshness":"FRESH","line1":"1 42805U 17039C   26262.90989730  .00000049  00000+0  10473-4 0  9993","line2":"2 42805  86.3907 282.3524 0002142  90.8873 269.2568 14.34217704484753","mean_motion":14.34217704,"eccentricity":0.0002142,"inclination_deg":86.3907,"raan_deg":282.3524,"arg_perigee_deg":90.8873,"mean_anomaly_deg":269.2568,"bstar":1.0473e-5,"rev_number":48475,"period_min":100.40316724468,"perigee_km":776.13453407737,"apogee_km":779.20008064264,"semimajor_km":7155.80430736,"source":"CELESTRAK","updated_at":"2026-09-20T09:00:36.322293Z"}}